Location: Grossmotten
(48.5500°N, 15.3833°E)
Time: 07:48:39
(UTC+00:00)

Helios 1A Rocket - Pass Details

Date: 15 November 2019
Orbit: 564 x 587 km, 98.3° (Epoch: 05 December)

Event Time Altitude Azimuth Distance (km) Brightness Sun altitude
Rises 05:12:35 0° 8° (N) 2,816 6.3 -9.0°
Reaches altitude 10° 05:14:49 10° 2° (N) 1,908 5.4 -8.6°
Maximum altitude 05:18:43 42° 291° (WNW) 829 3.3 -8.0°
Drops below altitude 10° 05:22:34 10° 220° (SW) 1,880 5.3 -7.4°
Sets 05:24:46 0° 214° (SW) 2,769 6.3 -7.1°
